Terminal Aerodrome Forecast
Issued by NWS Mt. Holly, NJ

Home | Current Version | Previous Version | Text Only | Print | Product List | Glossary On
Versions: 1 2 3 4 5 6 7 8 9 10 11 12 13 14 15 16 17 18 19 20 21 22 23 24 25 26 27 28 29 30 31 32 33 34 35 36 37 38 39 40 41 42 43 44 45 46 47 48 49 50
000
FTAK31 PANC 061143
TAFABE
TAF
PABE 061143Z 0612/0712 18011KT 6SM BR FEW008 SCT025 OVC040
      TEMPO 0612/0614 BKN004
     FM061500 18014KT 2SM -SN BR SCT015 OVC025
     FM062000 18020G32KT 1SM -RASN BR OVC008
     FM070600 20020G32KT 2SM -SN BLSN OVC025=

USA.gov is the U.S. government's official web portal to all federal, state and local government web resources and services.